Effective Sunday, March 17, 2024, the National Weather Service National Data Buoy Center will discontinue its Dial-A-Buoy Interactive Voice Response system. For more information, see Service Change Notice 24-06 (PDF).

Station GTRM4 - Superior Grand Traverse Bay, MI Image indicating link to RSS feed of recent meteorological observations for station GTRM4


Conditions at GTRM4 as of
(12:00 pm EST)
1700 GMT on 03/02/2024:
     

Click on the graph icon in the table below to see a time series plot of the last five days of that observation.

5-day plot - Wind Direction Wind Direction (WDIR): S ( 170 deg true )
5-day plot - Wind Speed Wind Speed (WSPD): 6.0 kts
5-day plot - Wind Gust Wind Gust (GST): 8.0 kts
5-day plot - Atmospheric Pressure Atmospheric Pressure (PRES):29.93 in
5-day plot - Pressure Tendency Pressure Tendency (PTDY):+0.01 in ( Rising )
5-day plot - Air Temperature Air Temperature (ATMP): 39.6 °F
5-day plot - Wind Chill Wind Chill (CHILL): 34.7 °F
5-day plot - Wind Speed at 10 Meters Wind Speed at 10 meters (WSPD10M): 5.8 kts
5-day plot - Wind Speed at 20 Meters Wind Speed at 20 meters (WSPD20M): 5.8 kts
5-day plot -  Wind Speed, Wind Gust and Atmospheric Pressure Combined plot of Wind Speed, Gust, and Air Pressure
Previous observations
TIME
(EST)
5-day plot - Wind Direction
WDIR
 
5-day plot - Wind Speed
WSPD
kts
5-day plot - Wind Gust
GST
kts
5-day plot - Wave Height
WVHT
ft
5-day plot - Dominant Wave Period
DPD
sec
5-day plot - Average Wave Period
APD
sec
5-day plot - Mean Wave Direction
MWD
 
5-day plot - Atmospheric Pressure
PRES
in
5-day plot - Pressure Tendency
PTDY
in
5-day plot - Air Temperature
ATMP
°F
5-day plot - Water Temperature
WTMP
°F
5-day plot - Dew Point
DEWP
°F
5-day plot - Salinity
SAL
psu
5-day plot - Visibility
VIS
nmi
5-day plot - Tide (above MLLW)
TIDE
ft
2024-03-02 11:50 amSSE 6.0 8.0----29.93- 39.6-----
2024-03-02 11:40 amSSE 4.1 7.0----29.93- 40.5-----
2024-03-02 11:30 amSSE 6.0 8.0----29.93- 41.9-----
2024-03-02 11:20 amSSE 5.1 7.0----29.94- 42.1-----
2024-03-02 11:10 amSSE 1.9 6.0----29.94- 43.2-----
2024-03-02 11:00 amSSE 5.1 8.0----29.93+0.02 41.2-----
2024-03-02 10:50 am S 5.1 7.0----29.93- 42.3-----
2024-03-02 10:40 am W 1.9 6.0----29.93- 46.2-----
2024-03-02 10:30 am S 2.9 6.0----29.92- 42.4-----
2024-03-02 10:20 am S 2.9 6.0----29.92- 43.3-----
2024-03-02 10:10 amWSW 1.9 5.1----29.92- 43.5-----
2024-03-02 10:00 am SW 1.9 7.0----29.92+0.02 44.6-----
2024-03-02 09:50 amWSW 5.1 8.0----29.92- 43.3-----
2024-03-02 09:40 amWSW 4.1 7.0----29.92- 43.0-----
2024-03-02 09:30 am W 4.1 8.0----29.92- 42.1-----
2024-03-02 09:20 amWSW 5.1 8.0----29.92- 41.2-----
2024-03-02 09:10 amWSW 2.9 5.1----29.92- 40.8-----
2024-03-02 09:00 am W 2.9 4.1----29.92+0.03 40.3-----
2024-03-02 08:50 am- 0.0 4.1----29.92- 38.8-----
2024-03-02 08:40 amWSW 2.9 4.1----29.92- 37.2-----
2024-03-02 08:30 am- 0.0 1.9----29.92- 36.3-----
2024-03-02 08:20 amWSW 1.9 2.9----29.92- 34.0-----
2024-03-02 08:10 amWSW 2.9 2.9----29.92- 31.1-----
2024-03-02 08:00 amWSW 1.0 1.9----29.91+0.03 29.1-----
2024-03-02 07:50 am W 1.0 1.0----29.91- 28.9-----
2024-03-02 07:40 am W 1.0 1.9----29.91- 29.7-----
2024-03-02 07:30 am NW 1.9 1.9----29.91- 29.1-----
2024-03-02 07:20 am NW 1.0 1.9----29.91- 29.1-----
2024-03-02 07:10 am- 0.0 0.0----29.90- 29.7-----
2024-03-02 07:00 am- 0.0 0.0----29.90+0.03 30.0-----
2024-03-02 06:50 am- 0.0 1.0----29.90- 31.5-----
2024-03-02 06:40 am W 1.0 2.9----29.90- 32.7-----
2024-03-02 06:30 am W 1.9 4.1----29.90- 34.5-----
2024-03-02 06:20 am W 1.9 5.1----29.90- 35.4-----
2024-03-02 06:10 am W 2.9 7.0----29.89- 36.0-----
2024-03-02 06:00 am W 2.9 5.1----29.89+0.02 36.7-----
2024-03-02 05:50 amWSW 2.9 5.1----29.88- 37.0-----
2024-03-02 05:40 am W 2.9 5.1----29.88- 36.9-----
2024-03-02 05:30 amWSW 2.9 5.1----29.88- 36.9-----
2024-03-02 05:20 amWSW 2.9 5.1----29.88- 37.0-----
2024-03-02 05:10 amWSW 2.9 5.1----29.88- 37.8-----
2024-03-02 05:00 amWSW 2.9 6.0----29.88+0.02 37.8-----
2024-03-02 04:50 amWSW 4.1 7.0----29.88- 38.5-----
2024-03-02 04:40 amWSW 4.1 7.0----29.88- 38.8-----
2024-03-02 04:30 amWSW 4.1 7.0----29.88- 38.7-----
2024-03-02 04:20 am SW 4.1 8.0----29.87- 38.8-----
2024-03-02 04:10 amWSW 2.9 6.0----29.87- 38.7-----
2024-03-02 04:00 amWSW 4.1 6.0----29.87+0.02 38.8-----
2024-03-02 03:50 am SW 2.9 6.0----29.87- 39.0-----
2024-03-02 03:40 am SW 1.9 5.1----29.87- 39.0-----
2024-03-02 03:30 am SW 1.9 6.0----29.87- 39.4-----
2024-03-02 03:20 am SW 1.9 6.0----29.87- 39.6-----
2024-03-02 03:10 am SW 1.9 7.0----29.87- 39.9-----
2024-03-02 03:00 am SW 2.9 7.0----29.87+0.01 40.3-----
2024-03-02 02:50 am SW 4.1 6.0----29.87- 40.5-----
2024-03-02 02:40 am SW 2.9 7.0----29.87- 40.8-----
2024-03-02 02:30 am SW 4.1 7.0----29.87- 41.0-----
2024-03-02 02:20 am SW 4.1 8.9----29.87- 41.0-----
2024-03-02 02:10 am SW 5.1 8.0----29.87- 41.4-----
2024-03-02 02:00 am SW 5.1 8.9----29.86+0.01 41.7-----
2024-03-02 01:50 am SW 5.1 8.9----29.86- 41.9-----
2024-03-02 01:40 am SW 4.1 9.9----29.86- 41.9-----
2024-03-02 01:30 am SW 5.1 9.9----29.86- 42.1-----
2024-03-02 01:20 am SW 5.1 11.1----29.86- 42.1-----
2024-03-02 01:10 am SW 4.1 8.0----29.86- 41.9-----
2024-03-02 01:00 am SW 4.1 11.1----29.85+0.00 41.9-----
2024-03-02 12:50 am SW 4.1 8.0----29.85- 41.2-----
2024-03-02 12:40 am SW 4.1 7.0----29.85- 40.1-----
2024-03-02 12:30 am SW 1.9 5.1----29.85- 37.8-----
2024-03-02 12:20 am SW 1.9 1.9----29.85- 34.7-----
2024-03-02 12:10 am- 0.0 1.0----29.86- 34.7-----
2024-03-02 12:00 am- 0.0 1.9----29.86+0.03 35.2-----
2024-03-01 11:50 pm- 0.0 1.9----29.86- 37.2-----
2024-03-01 11:40 pm- 0.0 4.1----29.86- 39.7-----
2024-03-01 11:30 pm S 2.9 6.0----29.86- 40.6-----
2024-03-01 11:20 pm SW 2.9 7.0----29.86- 40.5-----
2024-03-01 11:10 pm SW 1.9 6.0----29.85- 41.0-----
2024-03-01 11:00 pmSSW 1.9 4.1----29.85+0.05 41.5-----
2024-03-01 10:50 pm SW 1.9 2.9----29.85- 40.6-----
2024-03-01 10:40 pm SW 1.0 4.1----29.85- 42.8-----
2024-03-01 10:30 pm SW 1.9 4.1----29.85- 43.7-----
2024-03-01 10:20 pm SW 1.9 5.1----29.85- 43.9-----
2024-03-01 10:10 pm SW 2.9 4.1----29.85- 44.8-----
2024-03-01 10:00 pmSSW 1.9 5.1----29.85+0.06 45.3-----
2024-03-01 09:50 pm SW 1.9 5.1----29.85- 46.2-----
2024-03-01 09:40 pmWSW 4.1 8.0----29.84- 46.6-----
2024-03-01 09:30 pm SW 2.9 8.0----29.84- 46.6-----
2024-03-01 09:20 pmWSW 4.1 8.9----29.84- 47.3-----
2024-03-01 09:10 pmWSW 6.0 11.1----29.83- 47.5-----
2024-03-01 09:00 pmWSW 5.1 9.9----29.83+0.06 47.7-----
2024-03-01 08:50 pm SW 6.0 9.9----29.82- 48.0-----
2024-03-01 08:40 pmWSW 4.1 8.9----29.82- 48.0-----
2024-03-01 08:30 pm SW 6.0 9.9----29.81- 47.8-----
2024-03-01 08:20 pm SW 4.1 8.0----29.81- 47.1-----
2024-03-01 08:10 pm SW 4.1 8.0----29.81- 46.0-----
2024-03-01 08:00 pm SW 2.9 7.0----29.80+0.02 44.6-----
2024-03-01 07:50 pmSSW 4.1 7.0----29.80- 44.8-----
2024-03-01 07:40 pmSSW 4.1 9.9----29.80- 45.3-----
2024-03-01 07:30 pmSSW 5.1 8.0----29.80- 46.0-----
2024-03-01 07:20 pmSSW 4.1 8.0----29.79- 45.9-----
2024-03-01 07:10 pmSSW 4.1 8.0----29.79- 45.5-----
2024-03-01 07:00 pmSSW 2.9 8.0----29.79-0.02 45.9-----
2024-03-01 06:50 pmSSW 5.1 8.0----29.79- 46.6-----
2024-03-01 06:40 pmSSW 4.1 8.9----29.78- 46.0-----
2024-03-01 06:30 pmSSW 2.9 7.0----29.78- 45.7-----
2024-03-01 06:20 pm S 5.1 8.0----29.77- 47.1-----
2024-03-01 06:10 pmSSW 5.1 8.9----29.77- 47.8-----
2024-03-01 06:00 pmSSW 2.9 9.9----29.77-0.05 48.2-----
2024-03-01 05:50 pmSSW 4.1 8.9----29.77- 48.6-----
2024-03-01 05:40 pm S 4.1 11.1----29.77- 48.6-----
2024-03-01 05:30 pmSSW 5.1 8.9----29.77- 48.4-----
2024-03-01 05:20 pm- 0.0 2.9----29.78- 42.1-----
2024-03-01 05:10 pmNNE 1.9 2.9----29.78- 41.5-----
2024-03-01 05:00 pm E 1.0 1.9----29.78-0.07 38.5-----
2024-03-01 04:50 pm E 1.9 2.9----29.79- 37.9-----
2024-03-01 04:40 pm E 1.9 4.1----29.79- 37.9-----
2024-03-01 04:30 pm E 1.9 4.1----29.80- 38.1-----
2024-03-01 04:20 pm E 1.9 2.9----29.80- 38.3-----
2024-03-01 04:10 pm E 2.9 4.1----29.80- 38.8-----
2024-03-01 04:00 pm NE 2.9 4.1----29.81-0.08 42.1-----
2024-03-01 03:50 pm NE 2.9 5.1----29.80- 41.5-----
2024-03-01 03:40 pmENE 5.1 6.0----29.81- 41.0-----
2024-03-01 03:30 pmENE 5.1 6.0----29.81- 39.6-----
2024-03-01 03:20 pm E 6.0 8.0----29.81- 36.5-----
2024-03-01 03:10 pm E 8.0 8.0----29.81- 36.3-----
2024-03-01 03:00 pm E 8.0 8.0----29.82-0.10 36.1-----
2024-03-01 02:50 pm E 7.0 8.9----29.82- 36.5-----
2024-03-01 02:40 pmENE 8.9 8.9----29.83- 36.5-----
2024-03-01 02:30 pmENE 6.0 8.0----29.84- 37.6-----
2024-03-01 02:20 pmENE 7.0 8.0----29.84- 37.4-----
2024-03-01 02:10 pmENE 6.0 8.0----29.84- 36.9-----
2024-03-01 02:00 pm E 7.0 8.0----29.85-0.08 35.8-----
2024-03-01 01:50 pm E 6.0 8.0----29.86- 35.8-----
2024-03-01 01:40 pmENE 5.1 7.0----29.86- 36.5-----
2024-03-01 01:30 pm E 7.0 8.0----29.87- 36.0-----
2024-03-01 01:20 pm E 5.1 8.0----29.88- 36.1-----
2024-03-01 01:10 pmENE 6.0 7.0----29.88- 36.3-----
2024-03-01 01:00 pm E 4.1 5.1----29.89-0.06 36.1-----
2024-03-01 12:50 pm E 5.1 6.0----29.90- 36.0-----
2024-03-01 12:40 pm E 6.0 6.0----29.90- 35.4-----
2024-03-01 12:30 pm E 5.1 6.0----29.91- 36.0-----
2024-03-01 12:20 pm E 5.1 6.0----29.91- 35.8-----
2024-03-01 12:10 pmESE 6.0 7.0----29.91- 35.8-----
2024-03-01 12:00 pmESE 7.0 7.0----29.92-0.04 35.6-----
2024-03-01 11:50 amESE 7.0 8.0----29.92- 35.6-----